Find WHDW 20-03

NORAD ID: 68131 Int'l Des: 2026-047 Owner: ZXW Country: CN Constellation: xingwang operational
LEOCIRCULAR

Current View

Loading 3D Globe...

About WHDW 20-03

WHDW 20-03 (NORAD 68131) is a xingwang constellation satellite launched Mar 12, 2026 by ZXW of CN. It operates in LEO, CIRCULAR orbit with a mass of 700.00 kg.

About WHDW 20-03

Description loading...

Upcoming Passes

Passes for default location (London). Set your location on the main map for personalized predictions.

Altitude History

Loading altitude history...

Two-Line Element Set

1 68131U 26047C 26164.45359030 -.00000095 00000-0 62675-4 0 9991
2 68131 50.0009 69.6085 0000513 83.5082 276.5848 13.29331324 12570
Epoch: Jun 13, 2026 • Age: 16 hours

Current Status

Altitude 1166.7 km
Velocity 7.27 km/s
Sub-Earth Point -49.98°S, 28.84°E
Launch Date Mar 12, 2026
Age 0.2 years
Type other

Technical Details

Classification Payload
Mass 700.00 kg
Dry Mass 700.00 kg
Total Mass 700.00 kg
Length 3.00 m
Diameter 1.00 m
Span 10.00 m
Shape Box + 2 Pan
Manufacturer CAST
Bus Type Xingwang C
Phase Status In Orbit
Owner/State ZXW/CN

Most Searched